Weather in Mellieha

Malta     35°57′25″N   14°21′40″E
temp.,
°C
wind,
m/s
gust,
m/s
humid.,
%
clouds,
%
prec.,
mm/h
press.,
hPa
HPBL,
m
17 april, sat
sat1723:00+14ne15157873 0.0 1007875
02:00+14ne13147756 0.0 1007881
05:00+14ne121279100 0.1 1006992
08:00+14nne101082100 0.6 1010840
11:00+14ne768048 0.1 1010551
14:00+14nne33776 0.1 1011513
17:00+15nw56725 0.0 1011712
20:00+15wnw67725 0.0 1012704
18 april, sun
sun1823:00+15w457225 0.0 1014622
02:00+15w668274 0.1 1014650
05:00+14wnw5673100 0.4 1014627
08:00+14nw99710 0.5 1015730
11:00+14nw77725 0.0 1017848
14:00+15nw78690 0.0 1017901
17:00+14wnw786415 0.0 10171015
20:00+14wnw89680 0.0 1017928
19 april, mon
mon1923:00+14wnw677080 0.0 1018947
02:00+14w9107599 0.5 10181034
05:00+14wnw1112675 0.4 10171398
08:00+14wnw1011665 0.5 10171465
11:00+14wnw1012682 0.1 10181356
14:00+15wnw1112675 0.3 10191345
17:00+15wnw1012660 0.0 10181225
20:00+15wnw1012662 0.0 1018933
20 april, tue
tue2023:00+15wnw7970100 0.0 1019800
02:00+15wnw677186 0.0 1018775
05:00+15w66728 0.0 1018702
08:00+15wsw457297 0.0 1018543
11:00+15sw566877 0.0 1019591
14:00+16ssw6871100 0.0 1018551
17:00+16s687498 0.0 1016427
20:00+16sse577823 0.0 1017281
21 april, wed
wed2123:00+15sse688092 0.0 1017301
02:00+15se5882100 0.0 1017310
05:00+16sse3580100 0.0 1017197
08:00+16se7879100 0.1 1017146
11:00+18ese6769100 0.0 1017129
14:00+17se81170100 0.0 1017265
17:00+17ese91277100 0.0 1015405
20:00+16e111581100 0.0 1016400